Terminal Aerodrome Forecast
Issued by NWS Medford, OR

Home | Current Version | Previous Version | Text Only | Print | Product List | Glossary On
Versions: 1 2 3 4 5 6 7 8 9 10 11 12 13 14 15 16 17 18
000
FTUS46 KMFR 232300
TAFMFR
TAF
KMFR 232337Z 2400/2424 31014G21KT P6SM VCSH BKN070
     FM240400 34004KT P6SM SCT050
     FM242200 35008G16KT P6SM FEW070=

USA.gov is the U.S. government's official web portal to all federal, state and local government web resources and services.